Location: Newark
(44.6303°N, 123.0961°W)
Time: 00:32:20
(UTC+00:00)

Envisat - Pass Details

Date: 02 February 2020
Orbit: 764 x 766 km, 98.1° (Epoch: 24 February)

Event Time Altitude Azimuth Distance (km) Brightness Sun altitude
Rises 02:28:16 0° 182° (S) 3,219 6.4 -12.2°
Reaches altitude 10° 02:30:39 10° 189° (S) 2,297 5.7 -12.7°
Maximum altitude 02:35:30 45° 262° (W) 1,036 4.2 -13.5°
Drops below altitude 10° 02:40:23 10° 335° (NNW) 2,312 5.7 -14.4°
Sets 02:42:48 0° 341° (NNW) 3,243 6.4 -14.8°
